CW1839 Catania IT current weather conditions

sailwx.info

Wind from 332

Air temperature 24.4° C
Dewpoint 13.3° C

Last reported at 2020-Aug-12 05:46 UTC.
Time now 2020-Aug-12 07:15 UTC

Location: N 37°30' E 015°06'.
View on Google Maps.

See reports from other nearby stations

  
Tides and Currents Weather Stations Pressure Air Temp Water Temp Dewpoint Dewpoint Depression Visibility Wind Speed Wind Dir Waves Ship Positions
date/time (UTC)wind fromknots sea level pressurealtimeterstation pressurevisibilityair tempwater tempwave heightnotes
2020-Aug-12 05:46 332 24.4
2020-Aug-12 05:16 332 23.9
2020-Aug-12 05:00 332 23.9
2020-Aug-12 04:47 332 23.3
2020-Aug-12 04:31 330 23.3
2020-Aug-12 04:01 329 23.3
2020-Aug-12 03:31 329 23.9
2020-Aug-12 03:16 329 23.9
2020-Aug-12 03:01 329 23.9
2020-Aug-12 02:46 330 23.9
2020-Aug-12 02:16 337 23.9
2020-Aug-12 02:01 339 23.9
2020-Aug-12 01:45 340 23.9
2020-Aug-12 01:30 346 23.3
2020-Aug-12 01:16 320 23.9
2020-Aug-12 00:45 281 23.9
2020-Aug-12 00:31 278 23.9
2020-Aug-12 00:16 278 23.9
2020-Aug-11 23:45 278 23.9
2020-Aug-11 23:31 278 24.4
2020-Aug-11 23:15 309 24.4
2020-Aug-11 22:46 359 24.4
2020-Aug-11 22:31 359 24.4
2020-Aug-11 22:17 359 25.0
2020-Aug-11 22:02 359 25.0
2020-Aug-11 21:46 359 25.0
2020-Aug-11 21:30 359 25.6
2020-Aug-11 21:16 359 25.6
2020-Aug-11 21:02 359 25.6
2020-Aug-11 20:31 359 25.6
2020-Aug-11 20:16 357 26.1
2020-Aug-11 20:01 26.1
2020-Aug-11 19:46 292 26.1
2020-Aug-11 19:31 275 26.7
2020-Aug-11 19:16 275 26.7
2020-Aug-11 19:01 275 26.7
2020-Aug-11 18:47 275 26.7
2020-Aug-11 18:31 200 26.7
2020-Aug-11 18:16 200 26.7
2020-Aug-11 18:01 202 27.2
2020-Aug-11 17:46 178 27.2
2020-Aug-11 17:32 182 27.8
2020-Aug-11 17:17 143 27.8
2020-Aug-11 17:01 143 27.8
2020-Aug-11 16:45 144 27.8
2020-Aug-11 16:31 141 27.8
2020-Aug-11 16:16 127 27.8
2020-Aug-11 16:02 092 27.2
2020-Aug-11 15:46 092 27.2
2020-Aug-11 15:31 092 27.2
2020-Aug-11 15:16 092 27.2
2020-Aug-11 14:46 082 0 27.8
2020-Aug-11 14:31 097 0 28.9
2020-Aug-11 14:16 116 2 30.0
2020-Aug-11 14:01 088 2 30.6
2020-Aug-11 13:46 072 3 30.6
2020-Aug-11 13:30 097 3 31.1
2020-Aug-11 13:16 073 5 31.7
2020-Aug-11 12:45 073 4 31.1
2020-Aug-11 12:31 052 5 31.1
2020-Aug-11 12:01 028 4 31.1
2020-Aug-11 11:46 059 5 30.6
2020-Aug-11 11:32 059 3 31.1
2020-Aug-11 11:16 072 3 31.1
2020-Aug-11 11:01 075 3 30.6
2020-Aug-11 10:46 078 4 30.6
2020-Aug-11 10:31 079 2 30.6
2020-Aug-11 10:16 097 0 30.6
2020-Aug-11 10:00 073 0 30.0
2020-Aug-11 09:46 065 30.0
2020-Aug-11 09:31 092 29.4
2020-Aug-11 09:16 103 28.9
2020-Aug-11 08:45 093 28.9
2020-Aug-11 08:16 073 28.3
2020-Aug-11 08:01 113 28.3
2020-Aug-11 07:46 165 28.3
2020-Aug-11 07:30 066 27.8
2020-Aug-11 07:16 066 27.2
2020-Aug-11 07:00 336 26.7
2020-Aug-11 06:46 337 26.1
2020-Aug-11 06:30 337 25.6
2020-Aug-11 06:16 337 25.6
2020-Aug-11 06:01 337 25.0
2020-Aug-11 05:46 337 24.4
2020-Aug-11 05:31 337 23.9
2020-Aug-11 05:16 337 23.9
2020-Aug-11 05:01 337 23.3
2020-Aug-11 04:46 337 23.3
2020-Aug-11 04:31 337 23.3
2020-Aug-11 04:16 337 23.9
2020-Aug-11 04:02 337 23.9
2020-Aug-11 03:46 337 23.9
2020-Aug-11 03:31 337 23.9
2020-Aug-11 03:16 339 23.9
2020-Aug-11 03:01 339 23.9
2020-Aug-11 02:31 359 23.9
2020-Aug-11 02:01 23.9
2020-Aug-11 01:32 23.9
2020-Aug-11 01:17 23.9
2020-Aug-11 01:01 23.9
2020-Aug-11 00:46 011 23.9
2020-Aug-11 00:18 011 24.4
2020-Aug-11 00:01 011 24.4
2020-Aug-10 23:46 011 24.4
2020-Aug-10 23:31 011 24.4
2020-Aug-10 23:01 011 24.4
2020-Aug-10 22:31 011 24.4
2020-Aug-10 22:16 011 25.0
2020-Aug-10 22:02 011 25.0
2020-Aug-10 21:46 011 25.0
2020-Aug-10 21:16 011 25.6
2020-Aug-10 21:01 011 25.6
2020-Aug-10 20:16 011 25.6
2020-Aug-10 20:01 011 25.6
2020-Aug-10 19:47 011 25.6
2020-Aug-10 19:33 041 26.1
2020-Aug-10 19:15 113 26.1
2020-Aug-10 19:01 138 26.7
2020-Aug-10 18:46 138 26.7
2020-Aug-10 18:32 138 26.7
2020-Aug-10 18:17 138 27.2
2020-Aug-10 18:00 138 27.2
2020-Aug-10 17:46 138 27.8
2020-Aug-10 17:30 138 28.3
2020-Aug-10 17:16 138 29.4
2020-Aug-10 17:01 140 30.0
2020-Aug-10 16:45 123 30.0
2020-Aug-10 16:15 093 29.4
2020-Aug-10 16:00 083 28.3
2020-Aug-10 15:46 083 28.3
2020-Aug-10 15:32 083 28.3
2020-Aug-10 15:15 080 28.3
2020-Aug-10 15:01 104 29.4
2020-Aug-10 14:46 103 30.0
2020-Aug-10 14:31 127 0 30.6
2020-Aug-10 14:15 121 0 31.1
2020-Aug-10 14:01 093 1 31.7
2020-Aug-10 13:30 107 0 32.2
2020-Aug-10 13:01 034 1 31.7
2020-Aug-10 12:46 078 31.7
2020-Aug-10 12:31 109 0 31.7
2020-Aug-10 12:01 103 0 31.1
2020-Aug-10 11:46 134 31.1
2020-Aug-10 11:30 114 31.1
2020-Aug-10 11:16 107 31.1
2020-Aug-10 11:01 102 30.6
2020-Aug-10 10:47 110 30.6
2020-Aug-10 10:31 162 30.0
2020-Aug-10 10:16 130 30.0
2020-Aug-10 10:01 107 1 30.0
2020-Aug-10 09:45 113 30.0
2020-Aug-10 09:30 089 29.4
2020-Aug-10 09:01 157 29.4
2020-Aug-10 08:46 116 28.9
2020-Aug-10 08:31 109 29.4
2020-Aug-10 08:16 100 28.9
2020-Aug-10 08:02 107 28.9
2020-Aug-10 07:46 102 28.3
2020-Aug-10 07:31 144 28.3
2020-Aug-10 07:16 008 27.2
2020-Aug-10 07:00 313 27.2